Regional Weather Roundup
Issued by NWS Mobile, AL

Home | Current Version | Previous Version | Text Only | Print | Product List | Glossary On
Versions: 1 2 3 4 5 6 7 8 9 10 11 12 13 14 15 16 17 18 19 20 21 22 23 24 25 26 27
000
ASUS44 KMOB 222212
RWRMOB
REGIONAL WEATHER ROUNDUP
NATIONAL WEATHER SERVICE MOBILE AL
500 PM CDT SUN APR 22 2018

NOTE: "FAIR" INDICATES FEW OR NO CLOUDS BELOW 12,000 FEET WITH NO
      SIGNIFICANT WEATHER AND/OR OBSTRUCTIONS TO VISIBILITY.

  * THESE STATIONS ARE PART OF THE UNIVERSITY OF SOUTH ALABAMA
    MESONET AND ARE NOT UNDER NWS OR FAA QUALITY CONTROL.

ALZ061>064-222300-
COASTAL ALABAMA

CITY           SKY/WX    TMP DP  RH WIND       PRES   REMARKS
MOBILE REG APT PTSUNNY   76  67  73 S14G22    29.83F
BROOKLEY FIELD PTSUNNY   75  68  78 S12G20    29.85S
USA CAMPUS*    NOT AVBL
DOG RIVER*     NOT AVBL


CITY           SKY/WX    TMP DP  RH WIND       PRES   REMARKS
GULF SHORES    PTSUNNY   73  69  85 S9G26     29.86S

$$

ALZ051>060-222300-
INTERIOR SOUTHWEST AND SOUTH CENTRAL ALABAMA

CITY           SKY/WX    TMP DP  RH WIND       PRES   REMARKS
GREENVILLE     LGT RAIN  69  65  86 SE9G16    29.86F
EVERGREEN      PTSUNNY   74  68  81 SE17      29.85F
ATMORE*          N/A    N/A N/A N/A SE15      30.49F
ANDALUSIA/OPP  PTSUNNY   74  68  81 SE9G20    29.88F
ANDALUSIA*       N/A     72  68  88 SE9       29.89F
FLORALA APT    LGT RAIN  72  67  84 S9G18     29.93S
FLORALA*       NOT AVBL

$$

FLZ001>006-222300-
WESTERN FLORIDA PANHANDLE

CITY           SKY/WX    TMP DP  RH WIND       PRES   REMARKS
PENSACOLA      LGT RAIN  73  68  84 S18G25    29.87R
NAS PENSACOLA  PTSUNNY   74  69  85 S14       29.86F
MILTON         PTSUNNY   72  70  93 S18G32    29.86R
WHTNG S FIELD  RAIN      71  71 100 S13G25    29.86F FOG


CITY           SKY/WX    TMP DP  RH WIND       PRES   REMARKS
JAY*           NOT AVBL
DUKE FIELD     HVY RAIN  71  69  96 SE10G21   29.89F
CRESTVIEW      LGT RAIN  71  68  90 S8        29.91S
VALPARAISO     LGT RAIN  71  70  96 SE18G25   29.89F FOG
DESTIN         LGT RAIN  73  68  84 SE15G23   29.90S

$$

MSZ076-079-222300-
INTERIOR SOUTHEAST MISSISSIPPI

CITY           SKY/WX    TMP DP  RH WIND       PRES   REMARKS
LEAKESVILLE*   NOT AVBL
AGRICOLA*        N/A     73  68  83 CALM      29.79

$$

MARINE OBSERVATIONS

STATION/POSITION TIME  TEMP    WIND        PRES    WAVE
                       AIR SEA DIR/SP/G            HT/PER
                 (UTC) (F)     (DEG/KT/KT) (MB)    (FT/S)
PETIT BOIS ISLND 2148   70     200/ 16/ 19 1011.1F
GRAND BAY        2045   70     200/ 15     1012.0S
KATRINA CUT      2130   71     200/ 17     1010.8S
CEDAR POINT      2130   72     200/ 18       N/A
E DAUPHIN ISLAND 2200   71     180/ 16/ 18 1010.6F
MIDDLE BAY LIGHT 2130   71     190/ 22     1011.2S
USCG MOBILE BAY  2148   73 68  210/  9/ 14 1010.1F
STATE DOCKS      2148   75 65              1009.9F
MEAHER PARK      2130   70     170/ 16     1010.8S
WEEKS BAY        2045   75                 1011.0F
FORT MORGAN      2148   71     200/ 20/ 22   N/A
12 S ORANGE BCH  2150   71     190/ 16/ 19 1011.4F   5/ 6
PENSACOLA BAY    2148   72 71  200/  5/ 17 1011.6R
64 S DAUPHIN ISL 2150      73  210/ 10/ 12 1012.1F   3/ 5
67 S FORT MORGAN 2130   70                 1012.5F

$$

SELECTED LOCATIONS ACROSS THE REGION

CITY           SKY/WX    TMP DP  RH WIND       PRES   REMARKS
NEW ORLEANS    FAIR      80  63  55 W17G26    29.84F
GULFPORT       PTSUNNY   79  65  62 W12G22    29.81S
PASCAGOULA AP  FAIR      75  66  73 SW7G17    29.83F
PASCAGOULA*    NOT AVBL
HATTIESBURG    PTSUNNY   70  65  84 W10G22    29.83R
LAUREL         PTSUNNY   67  63  87 NW6G17    29.84R
MERIDIAN       CLOUDY    66  62  87 NW12G23   29.78R
JACKSON        CLOUDY    66  60  81 NW10      29.83R
MONTGOMERY     CLOUDY    68  67  96 E10       29.88F
TROY           LGT RAIN  69  68  96 SE12      29.92F
ASHFORD*         N/A     72  68  88 SE9       29.89F
DOTHAN         RAIN      69  66  90 S20       29.98S FOG
PANAMA CITY    LGT RAIN  73  69  87 SE15G28   29.93F

$$





USA.gov is the U.S. government's official web portal to all federal, state and local government web resources and services.